Tracking 30306 objects as of 22-Apr-2025
HD Live streaming from Space Station
objects crossing your sky now

THORAD DELTA 1 DEB

Track THORAD DELTA 1 DEB now!
10-day predictions


NORAD ID: 8164
Int'l Code: 1974-089AE
Perigee: 1,464.9 km
Apogee: 1,656.8 km
Inclination: 101.6 °
Period: 117.2 minutes
Semi major axis: 7931 km
RCS: 0.1159 m2 (medium)
Launch date: November 15, 1974
Source: United States (US)
Launch site: AIR FORCE WESTERN TEST RANGE (AFWTR)

Note: This is SATELLITE DEBRIS
Your satellite tracking list
Your tracking list is empty




NASA's NSSDC Master Catalog

Two Line Element Set (TLE):
1 08164U 74089AE  25111.88295642 -.00000009  00000-0  26868-3 0  9994
2 08164 101.5780 253.3539 0120941  53.7189  97.5546 12.28966203262851
Source of the keplerian elements: AFSPC